Location: *
(50.8956°S, 176.4536°W)
Time: 14:05:14
(UTC+00:00)

Daily predictions for brighter satellites

Satellite Brightness Start Highest point End
(mag) Time Altitude Azimuth Time Altitude Azimuth Time Altitude Azimuth
CZ-4C R/B 3.6 15:19:56 49° ESE 15:19:56 49° ESE 15:24:49 10° SE
USA 215 3.9 15:35:08 10° ESE 15:40:05 51° SE 15:40:05 51° SE
COSMOS 2455 3.7 15:50:23 45° SE 15:50:23 45° SE 15:54:32 10° SE
CENTAUR R/B 3.8 15:57:31 24° N 16:01:56 44° ENE 16:08:25 10° SE
Cosmos 1553 Rocket 4.1 16:09:13 62° SE 16:09:59 68° ESE 16:16:04 10° NNE
Cosmos 2237 Rocket 2.3 16:22:01 71° ENE 16:22:01 71° ENE 16:27:12 10° NNE
Cosmos 2227 Rocket 4.2 16:20:30 10° NNE 16:25:08 27° ENE 16:29:50 10° SE
Meteor 2-10 Rocket 3.9 16:24:35 45° S 16:26:26 72° ESE 16:32:16 10° NNE
Cosmos 1092 Rocket 4.5 16:32:38 46° SSW 16:32:38 46° SSW 16:37:12 10° S
SL-16 R/B 3.1 16:26:02 10° S 16:30:28 43° SSW 16:30:28 43° SSW
Cosmos 1461 4.1 16:34:26 39° SE 16:34:26 39° SE 16:37:16 10° SE
SL-16 R/B 3.3 16:36:09 25° S 16:38:57 42° SE 16:44:21 10° ENE
Cosmos 2297 Rocket 2.6 16:37:06 26° N 16:40:17 60° ENE 16:45:56 10° SE
Cosmos 1980 3.7 16:41:22 69° NNW 16:41:22 69° NNW 16:46:31 10° NNE
Cosmos 1818 3.4 16:48:06 77° NW 16:48:06 77° NW 16:53:26 10° NNE
Meteor 1-13 Rocket 4.2 16:49:49 50° NW 16:51:22 72° WSW 16:57:25 10° S
IRIDIUM 106 4.4 16:46:34 10° S 16:51:55 76° E 16:57:11 10° N
Cosmos 1733 Rocket 3.3 16:54:09 47° SSE 16:55:17 69° ESE 16:59:41 10° NNE
DMSP B5D2-2 4.0 16:53:16 10° SSE 16:58:38 74° WSW 17:00:32 41° NW
Spot 4 Rocket 3.9 16:56:15 10° N 17:01:25 69° WNW 17:02:22 56° SW
CORIOLIS 4.1 16:56:24 10° NNE 17:01:54 87° ESE 17:07:02 12° SSW
Cosmos 1707 Rocket 4.0 16:59:20 10° N 17:03:45 63° E 17:08:16 10° SSE
ISS -0.9 17:02:07 11° N 17:03:49 15° NE 17:05:52 10° ENE
NOSS 3-3 (C) 3.9 17:02:18 37° SW 17:05:04 80° SE 17:10:42 10° NE
BREEZE-M DEB (TANK) 3.3 17:05:13 29° N 17:05:38 30° NNE 17:08:01 10° E
Cosmos 304 Rocket 3.8 17:03:10 19° NNW 17:06:38 78° ENE 17:11:30 10° SSE
CZ-4C R/B 3.1 17:05:02 41° WSW 17:06:46 47° SSW 17:13:04 10° SE
SL-14 R/B 4.5 17:20:40 28° S 17:20:40 28° S 17:22:41 10° S
Okean 2 4.5 17:20:18 10° NNE 17:24:08 45° E 17:28:01 10° SSE
USA 215 3.6 17:17:52 10° ESE 17:24:14 53° S 17:27:26 29° WSW
SJ-7 4.4 17:20:48 10° N 17:24:27 54° WNW 17:24:27 54° WNW
SL-08 ROCKET BODY 4.4 17:18:46 10° N 17:25:00 86° W 17:31:20 10° S
Cosmos 1354 Rocket 4.5 17:21:54 10° N 17:27:08 63° ENE 17:32:28 10° SSE
Cosmos 2228 Rocket 3.0 17:26:38 10° NNW 17:31:07 66° WSW 17:35:42 10° S
SMAP 3.2 17:26:47 10° N 17:31:23 53° W 17:33:41 28° SW
CZ-2C R/B 2.7 17:27:53 10° NNE 17:31:30 73° ESE 17:33:57 19° S
Cosmos 1455 2.2 17:30:02 21° S 17:32:18 70° E 17:35:47 10° NNE
Okean 3 3.3 17:29:19 10° N 17:33:27 90° NE 17:37:41 10° S
Meteor 1-16 Rocket 4.1 17:28:19 10° SSW 17:33:57 79° W 17:39:43 10° N
COSMOS 2455 3.5 17:33:32 31° WSW 17:34:55 34° SW 17:40:25 10° SSE
Cosmos 2266 Rocket 3.9 17:28:52 10° NNW 17:34:59 71° WSW 17:41:16 10° S
Cosmos 2219 4.2 17:30:16 10° N 17:35:47 49° ENE 17:41:22 10° SE
Cosmos 1315 Rocket 2.6 17:33:36 10° NNW 17:37:31 73° WSW 17:41:33 10° S
Genesis I 2.7 17:37:59 55° SW 17:38:40 80° NW 17:42:06 10° NE
ADEOS Rocket 3.0 17:35:23 10° NNE 17:41:16 88° WNW 17:47:52 10° SSW
Meteor 1-21 4.2 17:36:17 10° NNW 17:41:57 70° WSW 17:47:45 10° S
Cosmos 773 Rocket 4.4 17:41:00 31° WSW 17:42:34 38° WNW 17:47:20 10° N
Cosmos 1953 2.2 17:40:01 12° S 17:43:47 87° W 17:47:42 10° N
Cosmos 1908 Rocket 3.8 17:40:31 10° S 17:45:04 75° E 17:49:30 10° NNE
USA 306 3.2 17:43:36 21° NNW 17:45:26 46° NNE 17:48:58 10° ESE
ULPM Upper Stage 4.3 17:45:07 20° SSW 17:45:49 21° SSW 17:49:10 10° SE
USA 308 3.5 17:47:52 19° NE 17:47:52 19° NE 17:48:39 10° ENE
Meteor 1-23 Rocket 4.5 17:41:42 10° NW 17:47:04 44° WSW 17:52:30 10° S
Cosmos 371 Rocket 3.6 17:44:26 21° WNW 17:47:19 44° WSW 17:52:00 10° SSE
ATLAS CENTAUR R/B 3.4 17:47:11 12° SSW 17:49:24 18° SSE 17:52:07 10° ESE
AQUARIUS 4.4 17:46:24 10° N 17:50:42 45° W 17:54:10 16° SSW
CENTAUR R/B 2.8 17:44:47 11° WNW 17:52:33 64° SW 17:58:59 10° SE
NOSS 3-3 (A) 4.0 17:48:51 22° SW 17:52:53 56° WNW 17:58:18 10° NNE
Helios 1B rocket 2.3 17:49:34 10° NNE 17:53:31 90° NNW 17:57:31 10° SSW
Cosmos 2263 Rocket 3.0 17:55:07 10° N 18:00:40 55° ENE 18:06:18 10° SE
Cosmos 1943 3.9 17:56:14 10° SSW 18:01:55 55° SE 18:07:31 10° NE
Cosmos 1408 3.7 18:00:07 10° NNE 18:02:50 36° E 18:05:37 10° SSE
Cosmos 1900 4.3 17:57:57 10° NW 18:02:52 85° WSW 18:07:56 10° SE
CZ-4 R/B 4.4 18:00:15 10° N 18:04:22 67° WNW 18:08:33 10° SSW
Cosmos 2237 Rocket 3.4 18:03:53 20° W 18:04:51 21° W 18:08:58 10° NNW
Cosmos 1503 Rocket 4.1 17:59:37 10° NW 18:04:52 55° WSW 18:10:13 10° SSE
NOAA 6 4.0 17:59:47 10° NNE 18:04:57 87° WNW 18:10:13 10° SSW
Meteor 1-31 Rocket 2.9 18:02:22 10° N 18:06:00 46° W 18:09:19 12° SSW
CZ-4B R/B 4.1 18:02:17 10° N 18:06:21 50° W 18:10:21 10° SSW
CZ-4B R/B 4.2 18:01:56 10° NE 18:06:37 53° ESE 18:11:27 10° S
SKYMED 2 3.7 18:02:38 10° SSE 18:07:06 84° ENE 18:11:31 10° NNW
Cosmos 2227 Rocket 2.2 18:03:08 10° NW 18:08:46 63° WSW 18:14:29 10° SSE
Cosmos 1538 Rocket 4.0 18:04:26 10° SSW 18:09:46 82° WNW 18:14:58 10° NNE
Cosmos 967 Rocket 4.4 18:04:56 10° NW 18:11:10 66° SW 18:17:30 10° SE
Cosmos 1461 4.1 18:09:54 21° WSW 18:11:30 26° SSW 18:15:12 10° SSE
SL-16 R/B 4.0 18:11:09 10° S 18:14:34 15° SW 18:15:34 15° SW
Aureole 1 Rocket 4.4 18:13:32 10° N 18:18:02 42° ENE 18:21:41 10° SE
Landsat 7 3.9 18:14:00 10° NNE 18:18:45 84° ESE 18:23:34 10° SSW
IGS 5A 3.7 18:16:31 10° N 18:20:30 46° W 18:24:31 10° SSW
SL-16 R/B 2.6 18:18:02 11° SW 18:23:08 43° WNW 18:28:28 10° N
Okean 1-7 3.2 18:19:28 10° NNW 18:23:41 48° WSW 18:27:59 10° S
Cosmos 2297 Rocket 2.9 18:19:37 10° WNW 18:24:42 32° SW 18:29:50 10° SSE
Cosmos 1862 Rocket 4.5 18:23:25 10° NW 18:27:07 26° WSW 18:30:52 10° S
Cosmos 1607 4.0 18:21:56 11° SW 18:28:00 79° NW 18:34:17 10° NNE
Cosmos 2082 3.9 18:24:19 10° NNW 18:30:04 81° ENE 18:35:53 10° SSE
Cosmos 1703 Rocket 3.6 18:26:14 10° NNW 18:30:41 64° WSW 18:35:14 10° S
Cosmos 1603 4.3 18:25:20 10° SSW 18:30:59 58° SE 18:36:37 10° NE
NOSS 3-2 (A) 4.1 18:23:20 10° WNW 18:31:58 61° SW 18:39:16 10° SE
Cosmos 923 Rocket 4.3 18:27:45 10° SSW 18:33:11 75° ESE 18:38:34 10° NNE
Resurs 01 Rocket 3.4 18:32:12 10° NE 18:36:08 31° ESE 18:40:06 10° S
Resurs 1-3 4.0 18:32:29 10° NNE 18:36:50 66° ESE 18:41:15 10° S
USA 276 1.5 18:35:05 15° W 18:36:55 65° N 18:39:10 10° ENE
BREEZE-M DEB 2.0 18:35:13 10° WNW 18:37:34 59° N 18:39:45 10° E
SAR-Lupe-2 3.7 18:34:08 10° N 18:37:41 54° WNW 18:41:18 10° SSW
Okean O Rocket 3.8 18:34:18 10° ENE 18:37:55 24° ESE 18:41:33 10° S
ISS -3.0 18:36:38 10° NW 18:40:02 56° NNE 18:43:28 10° E
Cosmos 1244 Rocket 4.5 18:36:09 10° NNW 18:42:18 68° WSW 18:48:34 10° S
USA 186 3.7 18:39:44 10° NE 18:42:40 31° ESE 18:45:41 10° S
BREEZE-M DEB (TANK) 4.3 18:39:18 10° WNW 18:43:26 79° NNE 18:58:51 10° E
Cosmos 292 Rocket 3.8 18:40:02 10° NNW 18:44:47 88° WSW 18:49:37 10° SSE
Aureole 3 4.3 18:44:05 10° WNW 18:46:02 16° WSW 18:47:59 10° SSW
Cosmos 990 Rocket 4.0 18:44:51 10° NW 18:50:04 63° WSW 18:55:20 10° SSE
Cosmos 405 Rocket 2.5 18:47:24 10° SSW 18:51:05 72° W 18:54:46 10° N
Meteor PRIRODA 3.4 18:48:15 10° N 18:51:40 73° WNW 18:55:08 10° SSW
CZ-4 R/B 1.8 18:47:52 10° NNE 18:51:42 63° ESE 18:55:38 10° S
Cosmos 1300 Rocket 3.7 18:47:38 10° SSW 18:51:56 53° W 18:56:10 10° N
YAOGAN 1 2.9 18:48:22 10° N 18:52:33 46° W 18:56:47 10° SSW
SPOT 1/Viking Rocket 3.8 18:47:22 10° NNE 18:52:35 79° ESE 18:57:50 10° SSW
Cosmos 332 Rocket 4.5 18:48:45 10° WNW 18:53:08 33° SW 18:57:35 10° S
Cosmos 2098 Rocket 4.4 18:48:24 10° S 18:53:31 59° ESE 18:59:29 10° NNE
CZ-4B DEB 4.3 18:48:07 10° NNE 18:53:40 86° ESE 18:59:16 10° SSW
CZ-4B R/B 3.0 18:51:13 10° NNE 18:55:05 80° ESE 18:59:11 10° SSW
COSMO-SKYMED 1 3.2 18:51:01 10° S 18:55:05 36° WSW 18:59:06 10° NW
Terra 4.5 18:53:31 10° ESE 18:55:13 12° SE 18:56:55 10° SSE
CZ-4C R/B 3.7 18:50:37 10° WSW 18:56:43 27° S 19:01:46 10° SE
Cosmos 1937 Rocket 4.3 18:52:08 10° N 18:57:19 59° ENE 19:02:36 10° SSE
Cosmos 1680 Rocket 3.6 18:57:00 10° SSW 19:02:24 87° WNW 19:07:40 10° NNE
NOSS 3-2 (C) 4.1 18:57:00 10° WNW 19:05:46 68° SW 19:13:11 10° SE
